Leadville, CO

4:31 PM MST on November 16, 2019 (GMT -0700)
Lake County

Weather History for KLXV - September, 2019

Change the Weather History Date:

Saturday, September 7, 2019

  Actual Average Record
Temperature  
Mean Temperature 54 °F -  
Max Temperature 69 °F 63 °F 74 °F (1977)
Min Temperature 39 °F 33 °F 25 °F (2010)
Degree Days  
Heating Degree Days 11 17  
Month to date heating degree days 59 111  
Since 1 July heating degree days 652 833  
Cooling Degree Days 0 0  
Month to date cooling degree days 0 0  
Year to date cooling degree days 0 0  
Growing Degree Days 4 (Base 50)    
Moisture  
Dew Point 39 °F    
Average Humidity 60    
Maximum Humidity 96    
Minimum Humidity 24    
Precipitation  
Precipitation 0.04 in 0.04 in 0.76 in (2011)
Month to date precipitation 0.17 0.32  
Year to date precipitation 12.71 9.27  
Sea Level Pressure  
Sea Level Pressure 30.09 in    
Wind  
Wind Speed 6 mph (NNE)    
Max Wind Speed 20 mph    
Max Gust Speed 28 mph    
Visibility 9 miles    
Events Rain    
T = Trace of Precipitation, MM = Missing Value Source: NWS Daily Summary

Daily Weather History Graph

Daily Weather History Graph

Search for Another Location

Airport or City:

Astronomy

Sep. 07, 2019 Rise Set
Actual Time 6:39 AM MDT 7:26 PM MDT
Civil Twilight 6:12 AM MDT 7:53 PM MDT
Nautical Twilight 5:39 AM MDT 8:25 PM MDT
Astronomical Twilight 5:06 AM MDT 8:59 PM MDT
Moon 3:43 PM MDT (9/7) 12:35 AM MDT (9/7)
Length of Visible Light 13h 41m
Length of Day
12h 47m
Waxing Gibbous, 66% of the Moon is Illuminated
Sep 7
Waxing Gibbous
Sep 13
Full
Sep 21
Last Quarter
Sep 28
New
Oct 5
First Quarter

Hourly Weather History & Observations

Time (MDT) Temp. Windchill Dew Point Humidity Pressure Visibility Wind Dir Wind Speed Gust Speed Precip Events Conditions
12:53 AM 46.9 °F - 45.0 °F 93% 30.06 in 1.8 mi Calm Calm - 0.02 in Rain Rain
12:57 AM 48.0 °F - 44.1 °F 86% 30.59 in 3.0 mi Variable 3.5 mph - 0.01 in Rain Light Rain
1:53 AM 46.0 °F 42.5 °F 44.1 °F 93% 30.04 in 10.0 mi NE 6.9 mph - 0.01 in   Partly Cloudy
2:53 AM 44.1 °F 42.5 °F 42.1 °F 93% 30.09 in 10.0 mi East 3.5 mph - 0.00 in   Mostly Cloudy
3:53 AM 45.0 °F 42.6 °F 42.1 °F 90% 30.12 in 10.0 mi WNW 4.6 mph - N/A   Mostly Cloudy
4:32 AM 44.1 °F 38.6 °F 42.1 °F 93% 30.50 in 2.5 mi ENE 10.4 mph 21.9 mph 0.04 in Rain Light Rain
4:40 AM 45.0 °F 40.6 °F 43.0 °F 93% 30.52 in 9.0 mi East 8.1 mph 18.4 mph 0.04 in Rain Light Rain
4:53 AM 45.0 °F 43.5 °F 42.1 °F 90% 30.06 in 10.0 mi ESE 3.5 mph - 0.04 in   Partly Cloudy
5:53 AM 42.1 °F - 41.0 °F 96% 30.08 in 8.0 mi Calm Calm - N/A   Partly Cloudy
6:08 AM 42.1 °F 40.2 °F 39.9 °F 92% 30.51 in 7.0 mi ENE 3.5 mph - N/A   Partly Cloudy
6:44 AM 41.0 °F 37.1 °F 39.0 °F 93% 30.51 in 2.0 mi East 5.8 mph - N/A   Partly Cloudy
6:53 AM 39.9 °F 35.1 °F 37.9 °F 93% 30.11 in 5.0 mi ENE 6.9 mph - N/A   Partly Cloudy
7:53 AM 43.0 °F - 41.0 °F 93% 30.12 in 10.0 mi Calm Calm - N/A   Clear
8:53 AM 48.9 °F - 43.0 °F 80% 30.06 in 10.0 mi Calm Calm - N/A   Clear
9:53 AM 55.0 °F - 46.0 °F 72% 30.03 in 10.0 mi NNE 3.5 mph - N/A   Clear
10:53 AM 62.1 °F - 41.0 °F 46% 29.99 in 10.0 mi North 13.8 mph 23.0 mph N/A   Clear
11:53 AM 63.0 °F - 37.9 °F 40% 29.97 in 10.0 mi Variable 3.5 mph 17.3 mph N/A   Partly Cloudy
12:53 PM 64.0 °F - 37.9 °F 38% 29.96 in 10.0 mi WNW 8.1 mph 17.3 mph N/A   Mostly Cloudy
1:53 PM 66.0 °F - 37.0 °F 34% 29.94 in 10.0 mi NW 8.1 mph 18.4 mph N/A   Clear
2:53 PM 64.9 °F - 34.0 °F 32% 29.94 in 10.0 mi NNW 12.7 mph 24.2 mph N/A   Scattered Clouds
3:53 PM 68.0 °F - 30.9 °F 25% 29.90 in 10.0 mi NW 10.4 mph 25.3 mph N/A   Partly Cloudy
4:53 PM 66.9 °F - 30.0 °F 25% 29.91 in 10.0 mi WNW 11.5 mph 25.3 mph N/A   Partly Cloudy
5:53 PM 66.0 °F - 30.0 °F 26% 29.93 in 10.0 mi WNW 10.4 mph 17.3 mph N/A   Scattered Clouds
6:53 PM 62.1 °F - 33.1 °F 34% 29.96 in 10.0 mi Variable 3.5 mph - N/A   Clear
7:53 PM 55.0 °F - 36.0 °F 49% 29.99 in 10.0 mi NNE 5.8 mph - N/A   Clear
8:53 PM 50.0 °F - 37.0 °F 61% 29.99 in 10.0 mi NE 6.9 mph - N/A   Clear
9:53 PM 48.0 °F - 36.0 °F 63% 29.98 in 10.0 mi NNE 3.5 mph - N/A   Clear
10:53 PM 48.0 °F - 36.0 °F 63% 29.94 in 10.0 mi Variable 3.5 mph - N/A   Mostly Cloudy
11:53 PM 44.1 °F 42.5 °F 36.0 °F 73% 29.94 in 10.0 mi NNE 3.5 mph - N/A   Clear